Regional Weather Roundup
Issued by NWS

Home | Current Version | Previous Version | Text Only | Print | Product List | Glossary Off
Versions: 1 2 3 4 5 6 7 8 9 10 11 12 13 14 15 16 17 18 19 20 21 22 23 24 25 26 27 28 29 30 31 32 33 34 35 36 37 38 39 40 41 42 43 44 45 46 47 48 49 50

050
ASUS43 KOAX 212302
RWRNE

WEATHER ROUNDUP FOR NEBRASKA
NATIONAL WEATHER SERVICE OMAHA NE
500 PM CST TUE FEB 21 2017

NOTES: SATELLITE DATA IS BEING USED TO AUGMENT CLOUD COVER ABOVE
       12000 FEET.
       "FAIR" INDICATES FEW OR NO CLOUDS BELOW 12,000 FEET WITH NO
       SIGNIFICANT WEATHER AND/OR OBSTRUCTIONS TO VISIBILITY.

  * THESE STATIONS DO NOT REPORT WEATHER SUCH AS RAIN...SNOW OR FOG.

NEZ001>004-019>022-054>056-220000-
NEBRASKA PANHANDLE

CITY           SKY/WX    TMP DP  RH WIND       PRES   REMARKS
SCOTTSBLUFF    SUNNY     70  18  13 W29G43    29.83S
ALLIANCE       SUNNY     69  17  13 W28G47    29.82S
CHADRON        SUNNY     69  26  20 W30G38    29.76F
SIDNEY         SUNNY     71  15  11 W25G33    29.90F
$$

NEZ057>060-069>072-079>082-220000-
SOUTHWEST NEBRASKA

CITY           SKY/WX    TMP DP  RH WIND       PRES   REMARKS
NORTH PLATTE   SUNNY     78  24  13 W13       29.81F
IMPERIAL       SUNNY     77  13   9 W13       29.86S
LEXINGTON      SUNNY     77  26  15 W9        29.82F
MCCOOK         SUNNY     79  25  13 W13G21    29.85S
OGALLALA       SUNNY     76  22  13 NW14G23   29.84S
$$

NEZ005>010-023>029-035>040-094-220000-
NORTH CENTRAL NEBRASKA

CITY           SKY/WX    TMP DP  RH WIND       PRES   REMARKS
VALENTINE      SUNNY     73  27  18 W18       29.73S
AINSWORTH      SUNNY     73  34  24 W18       29.74F
BROKEN BOW     SUNNY     76  31  19 W16       29.79F
O`NEILL        SUNNY     75  32  21 W13G21    29.74F
ORD            SUNNY     76  27  16 W15       29.76F
THEDFORD       SUNNY     75  29  18 W16G24    29.78F
$$

NEZ041-046>049-061>064-073>077-083>087-220000-
SOUTH CENTRAL NEBRASKA

CITY           SKY/WX    TMP DP  RH WIND       PRES   REMARKS
GRAND ISLAND   SUNNY     77  32  19 W13       29.80F
AURORA         SUNNY     75  30  19 SW15      29.80F
HASTINGS       SUNNY     76  28  17 SW9       29.83F
HEBRON         SUNNY     75  24  14 SW13G18   29.84F
HOLDREGE       SUNNY     77  23  13 W12       29.83F
KEARNEY *      SUNNY     77  28  16 W14       29.83S
YORK           SUNNY     73  27  17 SW13G18   29.81F
$$

NEZ011>018-030>034-042>045-220000-
NORTHEAST NEBRASKA

CITY           SKY/WX    TMP DP  RH WIND       PRES   REMARKS
NORFOLK        SUNNY     72  31  22 S13       29.74F
ALBION         SUNNY     77  29  17 W7        29.76F
BLAIR          SUNNY     71  36  27 S15       29.81S
FREMONT        SUNNY     73  30  20 SW14G21   29.81S
TEKAMAH        SUNNY     71  40  32 S12       29.78F
WAYNE          SUNNY     71  33  24 SW16      29.74F
$$

NEZ050>053-065>068-078-088>093-220000-
SOUTHEAST NEBRASKA

CITY           SKY/WX    TMP DP  RH WIND       PRES   REMARKS
LINCOLN        SUNNY     74  28  18 SW15      29.83F
OMAHA EPPLEY   SUNNY     70  37  29 S16       29.81F
BEATRICE       SUNNY     73  31  21 S14       29.85F
FALLS CITY     SUNNY     68  34  28 S8        29.88F
NEBRASKA CITY  SUNNY     68  25  19 S12       29.86F
PLATTSMOUTH    SUNNY     69  29  22 S12       29.84F
$$

NEZ044-045-051>053-067-220000-
OMAHA AREA

CITY           SKY/WX    TMP DP  RH WIND       PRES   REMARKS
OMAHA EPPLEY   SUNNY     70  37  29 S16       29.81F
BLAIR          SUNNY     71  36  27 S15       29.81S
FREMONT        SUNNY     73  30  20 SW14G21   29.81S
MILLARD        SUNNY     75  33  21 S8        29.82F
OFFUTT AFB     SUNNY     69  37  30 S13       29.82F
PLATTSMOUTH    SUNNY     69  29  22 S12       29.84F
WAHOO          FAIR      73  27  17 SW15G22   29.81S
$$




USA.gov is the U.S. government's official web portal to all federal, state and local government web resources and services.